When you browse on this site, cookies collect data to enhance your experience and personalize the content and advertising you see.
Visit our Privacy Policy to learn more. By continuing to use the site, you agree to this use of cookies and data.
  • In Portugal
  • List of Countries
  • For 7 days
  • Water Temperature
  • Satellite Maps
  • Weather Map
  • Weather Widgets
  • user-avatar
    Login

    Hourly Weather Byala

    Today, 19 January, Saturday

    Time Temperature Precipitation Wind Pressure Humidity
    00:00 +4°C° 0 mm 4 mps 751 mmHg 84%
    01:00 +4°C° 0 mm 3 mps 751 mmHg 82%
    02:00 +4°C° 0 mm 3 mps 751 mmHg 75%
    03:00 +4°C° 0 mm 3 mps 751 mmHg 72%
    04:00 +3°C° 0 mm 3 mps 752 mmHg 68%
    05:00 +3°C° 0 mm 3 mps 752 mmHg 65%
    06:00 +3°C° 0 mm 3 mps 753 mmHg 67%
    07:00 +3°C° 0 mm 3 mps 753 mmHg 69%
    08:00 +2°C° 0 mm 3 mps 753 mmHg 72%
    09:00 +3°C° 0 mm 4 mps 754 mmHg 71%
    10:00 +4°C° 0 mm 4 mps 754 mmHg 71%
    11:00 +5°C° 0 mm 5 mps 755 mmHg 70%
    12:00 +5°C° 0 mm 5 mps 755 mmHg 71%
    13:00 +5°C° 0 mm 5 mps 755 mmHg 71%
    14:00 +5°C° 0 mm 5 mps 755 mmHg 73%
    15:00 +5°C° 0.1 mm 5 mps 755 mmHg 77%
    16:00 +3°C° 0.1 mm 5 mps 756 mmHg 80%
    17:00 +3°C° 0.1 mm 6 mps 756 mmHg 84%
    18:00 +3°C° 0.3 mm 6 mps 756 mmHg 85%
    19:00 +3°C° 0.3 mm 5 mps 756 mmHg 86%
    20:00 +3°C° 0.3 mm 5 mps 756 mmHg 88%
    21:00 +3°C° 0.4 mm 5 mps 756 mmHg 89%
    22:00 +3°C° 0.4 mm 5 mps 756 mmHg 89%
    23:00 +3°C° 0.4 mm 5 mps 756 mmHg 90%

    Tomorrow, 20 January, Sunday

    Time Temperature Precipitation Wind Pressure Humidity
    00:00 +5°C° 0.1 mm 5 mps 755 mmHg 91%
    01:00 +5°C° 0.1 mm 5 mps 755 mmHg 91%
    02:00 +5°C° 0.1 mm 5 mps 755 mmHg 92%
    03:00 +5°C° 0.2 mm 5 mps 754 mmHg 93%
    04:00 +5°C° 0.2 mm 5 mps 754 mmHg 93%
    05:00 +5°C° 0.2 mm 5 mps 754 mmHg 94%
    06:00 +6°C° 0.1 mm 5 mps 753 mmHg 95%
    07:00 +6°C° 0.1 mm 5 mps 753 mmHg 96%
    08:00 +6°C° 0.1 mm 5 mps 753 mmHg 96%
    09:00 +7°C° 0 mm 5 mps 753 mmHg 95%
    10:00 +7°C° 0 mm 4 mps 753 mmHg 95%
    11:00 +8°C° 0 mm 4 mps 753 mmHg 94%
    12:00 +8°C° 0 mm 4 mps 752 mmHg 89%
    13:00 +10°C° 0 mm 4 mps 752 mmHg 85%
    14:00 +11°C° 0 mm 4 mps 751 mmHg 80%
    15:00 +10°C° 0.1 mm 4 mps 751 mmHg 83%
    16:00 +10°C° 0.1 mm 4 mps 751 mmHg 86%
    17:00 +9°C° 0.1 mm 3 mps 751 mmHg 89%
    18:00 +8°C° 0.1 mm 4 mps 750 mmHg 90%
    19:00 +8°C° 0.1 mm 4 mps 750 mmHg 90%
    20:00 +8°C° 0.1 mm 4 mps 750 mmHg 91%
    21:00 +8°C° 0.8 mm 4 mps 750 mmHg 92%
    22:00 +8°C° 0.8 mm 4 mps 750 mmHg 93%
    23:00 +8°C° 0.8 mm 3 mps 750 mmHg 94%

    Day after tomorrow, 21 January, Monday

    Time Temperature Precipitation Wind Pressure Humidity
    00:00 +8°C° 0.1 mm 3 mps 750 mmHg 94%
    01:00 +8°C° 0.1 mm 3 mps 750 mmHg 94%
    02:00 +7°C° 0.1 mm 3 mps 751 mmHg 94%
    03:00 +5°C° 0 mm 4 mps 751 mmHg 91%
    04:00 +4°C° 0 mm 4 mps 751 mmHg 89%
    05:00 +2°C° 0 mm 5 mps 751 mmHg 87%
    06:00 +2°C° 0 mm 5 mps 751 mmHg 87%
    07:00 +2°C° 0 mm 5 mps 752 mmHg 87%
    08:00 +1°C° 0 mm 5 mps 752 mmHg 86%
    09:00 +2°C° 0 mm 5 mps 753 mmHg 82%
    10:00 +3°C° 0 mm 5 mps 753 mmHg 78%
    11:00 +5°C° 0 mm 5 mps 754 mmHg 74%
    12:00 +5°C° 0 mm 5 mps 754 mmHg 73%
    13:00 +5°C° 0 mm 5 mps 754 mmHg 71%
    14:00 +5°C° 0 mm 5 mps 754 mmHg 70%
    15:00 +5°C° 0 mm 4 mps 754 mmHg 72%
    16:00 +4°C° 0 mm 4 mps 754 mmHg 73%
    17:00 +4°C° 0 mm 4 mps 755 mmHg 75%
    18:00 +3°C° 0 mm 4 mps 755 mmHg 76%
    19:00 +3°C° 0 mm 4 mps 755 mmHg 78%
    20:00 +1°C° 0 mm 4 mps 756 mmHg 80%
    21:00 +1°C° 0 mm 4 mps 756 mmHg 81%
    22:00 0°C° 0 mm 4 mps 756 mmHg 82%
    23:00 0°C° 0 mm 4 mps 756 mmHg 84%

    22 January, Tuesday

    Time Temperature Precipitation Wind Pressure Humidity
    00:00 0°C° 0 mm 4 mps 756 mmHg 84%
    01:00 +1°C° 0 mm 3 mps 756 mmHg 85%
    02:00 +1°C° 0 mm 3 mps 756 mmHg 86%
    03:00 +1°C° 0 mm 3 mps 756 mmHg 86%
    04:00 +1°C° 0 mm 3 mps 756 mmHg 86%
    05:00 +1°C° 0 mm 3 mps 755 mmHg 86%
    06:00 +2°C° 0 mm 3 mps 755 mmHg 86%
    07:00 +2°C° 0 mm 3 mps 755 mmHg 86%
    08:00 +2°C° 0 mm 3 mps 755 mmHg 85%
    09:00 +3°C° 0 mm 3 mps 755 mmHg 84%
    10:00 +3°C° 0 mm 4 mps 755 mmHg 82%
    11:00 +4°C° 0 mm 4 mps 754 mmHg 80%
    12:00 +4°C° 0 mm 4 mps 754 mmHg 81%
    13:00 +5°C° 0 mm 4 mps 753 mmHg 81%
    14:00 +5°C° 0 mm 4 mps 752 mmHg 82%
    15:00 +5°C° 0 mm 4 mps 752 mmHg 83%
    16:00 +5°C° 0 mm 4 mps 751 mmHg 85%
    17:00 +5°C° 0 mm 5 mps 751 mmHg 86%
    18:00 +5°C° 0.1 mm 5 mps 751 mmHg 87%
    19:00 +5°C° 0.1 mm 5 mps 750 mmHg 89%
    20:00 +4°C° 0.1 mm 6 mps 750 mmHg 90%
    21:00 +5°C° 0 mm 6 mps 750 mmHg 89%
    22:00 +5°C° 0 mm 6 mps 749 mmHg 89%
    23:00 +5°C° 0 mm 7 mps 749 mmHg 89%

    23 January, Wednesday

    Time Temperature Precipitation Wind Pressure Humidity
    00:00 +5°C° 0 mm 7 mps 748 mmHg 90%
    01:00 +5°C° 0 mm 6 mps 748 mmHg 91%
    02:00 +5°C° 0 mm 6 mps 747 mmHg 92%
    03:00 +7°C° 0.4 mm 6 mps 746 mmHg 93%
    04:00 +7°C° 0.4 mm 6 mps 746 mmHg 93%
    05:00 +7°C° 0.4 mm 6 mps 745 mmHg 94%
    06:00 +7°C° 2 mm 6 mps 745 mmHg 91%
    07:00 +7°C° 2 mm 6 mps 744 mmHg 89%
    08:00 +7°C° 2 mm 6 mps 744 mmHg 86%
    09:00 +8°C° 0.2 mm 7 mps 744 mmHg 84%
    10:00 +9°C° 0.2 mm 7 mps 744 mmHg 82%
    11:00 +9°C° 0.2 mm 7 mps 744 mmHg 80%
    12:00 +10°C° 0 mm 7 mps 743 mmHg 76%
    13:00 +11°C° 0 mm 8 mps 743 mmHg 71%
    14:00 +12°C° 0 mm 8 mps 743 mmHg 66%
    15:00 +12°C° 0 mm 8 mps 743 mmHg 69%
    16:00 +11°C° 0 mm 7 mps 743 mmHg 72%
    17:00 +10°C° 0 mm 7 mps 743 mmHg 75%
    18:00 +10°C° 0 mm 7 mps 743 mmHg 78%
    19:00 +9°C° 0 mm 7 mps 744 mmHg 81%
    20:00 +9°C° 0 mm 7 mps 744 mmHg 85%
    21:00 +9°C° 0 mm 6 mps 744 mmHg 86%
    22:00 +8°C° 0 mm 5 mps 744 mmHg 87%
    23:00 +8°C° 0 mm 5 mps 744 mmHg 87%

    24 January, Thursday

    Time Temperature Precipitation Wind Pressure Humidity
    00:00 +8°C° 0.1 mm 5 mps 744 mmHg 88%
    01:00 +8°C° 0.1 mm 6 mps 744 mmHg 89%
    02:00 +8°C° 0.1 mm 6 mps 743 mmHg 89%
    03:00 +8°C° 0.3 mm 6 mps 743 mmHg 89%
    04:00 +8°C° 0.3 mm 7 mps 743 mmHg 88%
    05:00 +8°C° 0.3 mm 7 mps 742 mmHg 88%
    06:00 +8°C° 0.3 mm 7 mps 742 mmHg 88%
    07:00 +8°C° 0.3 mm 7 mps 742 mmHg 88%
    08:00 +8°C° 0.3 mm 7 mps 742 mmHg 88%
    09:00 +8°C° 0.1 mm 7 mps 742 mmHg 86%
    10:00 +9°C° 0.1 mm 7 mps 742 mmHg 84%
    11:00 +9°C° 0.1 mm 6 mps 742 mmHg 82%
    12:00 +9°C° 0.3 mm 5 mps 741 mmHg 84%
    13:00 +9°C° 0.3 mm 3 mps 741 mmHg 87%
    14:00 +10°C° 0.3 mm 1 mps 740 mmHg 90%
    15:00 +9°C° 0 mm 2 mps 740 mmHg 90%
    16:00 +9°C° 0 mm 3 mps 740 mmHg 90%
    17:00 +8°C° 0 mm 4 mps 739 mmHg 90%
    18:00 +9°C° 0 mm 3 mps 739 mmHg 91%
    19:00 +8°C° 0 mm 3 mps 739 mmHg 92%
    20:00 +8°C° 0 mm 2 mps 740 mmHg 93%
    21:00 +8°C° 0.1 mm 2 mps 740 mmHg 93%
    22:00 +8°C° 0.1 mm 3 mps 740 mmHg 92%
    23:00 +9°C° 0.1 mm 3 mps 740 mmHg 92%
    Show more